When you browse on this site, cookies collect data to enhance your experience and personalize the content and advertising you see.
Visit our Privacy Policy to learn more. By continuing to use the site, you agree to this use of cookies and data.
  • în România
  • Lista ţărilor
  • Pe 7 zile
  • Temperatura apei
  • Hartă satelitară
  • Meteo pe hartă
  • Widget-uri
  • user-avatar
    Intrare

    Meteo pe oră la Novaya Teplovka

    Astăzi, 24 Martie, Duminică

    Timp Temperatura Precipitaţii Vânt Presiune Umiditate
    00:00 -2°C° 0.1 mm 3 m/s 746 mmHg 97%
    01:00 -4°C° 0 mm 3 m/s 746 mmHg 97%
    02:00 -4°C° 0 mm 3 m/s 746 mmHg 97%
    03:00 -4°C° 0 mm 2 m/s 746 mmHg 96%
    04:00 -5°C° 0 mm 2 m/s 747 mmHg 95%
    05:00 -5°C° 0 mm 2 m/s 747 mmHg 95%
    06:00 -7°C° 0 mm 3 m/s 747 mmHg 95%
    07:00 -5°C° 0 mm 3 m/s 747 mmHg 95%
    08:00 -4°C° 0 mm 3 m/s 747 mmHg 96%
    09:00 -2°C° 0 mm 3 m/s 746 mmHg 96%
    10:00 -1°C° 0.1 mm 2 m/s 746 mmHg 97%
    11:00 -1°C° 0.1 mm 2 m/s 746 mmHg 98%
    12:00 -1°C° 0.1 mm 2 m/s 745 mmHg 99%
    13:00 -1°C° 0.7 mm 2 m/s 745 mmHg 99%
    14:00 -1°C° 0.7 mm 2 m/s 744 mmHg 99%
    15:00 -1°C° 0 mm 2 m/s 744 mmHg 99%
    16:00 -1°C° 1 mm 2 m/s 743 mmHg 98%
    17:00 -1°C° 1 mm 3 m/s 742 mmHg 97%
    18:00 -1°C° 1 mm 3 m/s 742 mmHg 97%
    19:00 -1°C° 0.3 mm 3 m/s 741 mmHg 97%
    20:00 -1°C° 0.3 mm 3 m/s 740 mmHg 97%
    21:00 -1°C° 0.3 mm 3 m/s 740 mmHg 96%
    22:00 -4°C° 0.3 mm 5 m/s 739 mmHg 96%
    23:00 -4°C° 0.3 mm 6 m/s 739 mmHg 95%

    Mâine, 25 Martie, Luni

    Timp Temperatura Precipitaţii Vânt Presiune Umiditate
    00:00 -4°C° 0.3 mm 7 m/s 738 mmHg 94%
    01:00 -6°C° 0.2 mm 7 m/s 738 mmHg 94%
    02:00 -6°C° 0.2 mm 7 m/s 737 mmHg 94%
    03:00 -7°C° 0.2 mm 7 m/s 737 mmHg 94%
    04:00 -7°C° 0 mm 7 m/s 737 mmHg 94%
    05:00 -7°C° 0 mm 7 m/s 737 mmHg 93%
    06:00 -8°C° 0 mm 6 m/s 737 mmHg 93%
    07:00 -7°C° 0.1 mm 7 m/s 737 mmHg 93%
    08:00 -6°C° 0.1 mm 7 m/s 738 mmHg 93%
    09:00 -3°C° 0.1 mm 7 m/s 738 mmHg 92%
    10:00 -3°C° 0 mm 7 m/s 738 mmHg 94%
    11:00 -3°C° 0 mm 7 m/s 738 mmHg 96%
    12:00 -2°C° 0 mm 7 m/s 739 mmHg 97%
    13:00 -2°C° 0 mm 7 m/s 739 mmHg 96%
    14:00 -2°C° 0 mm 7 m/s 740 mmHg 95%
    15:00 -2°C° 0 mm 6 m/s 740 mmHg 93%
    16:00 -2°C° 0 mm 6 m/s 741 mmHg 92%
    17:00 -3°C° 0 mm 6 m/s 741 mmHg 90%
    18:00 -2°C° 0 mm 5 m/s 742 mmHg 88%
    19:00 -4°C° 0 mm 5 m/s 742 mmHg 90%
    20:00 -3°C° 0 mm 4 m/s 743 mmHg 91%
    21:00 -4°C° 0 mm 4 m/s 744 mmHg 92%
    22:00 -5°C° 0 mm 3 m/s 744 mmHg 92%
    23:00 -6°C° 0 mm 3 m/s 744 mmHg 92%

    Poimâine, 26 Martie, Marţi

    Timp Temperatura Precipitaţii Vânt Presiune Umiditate
    00:00 -7°C° 0 mm 3 m/s 745 mmHg 93%
    01:00 -8°C° 0 mm 3 m/s 745 mmHg 92%
    02:00 -7°C° 0 mm 2 m/s 745 mmHg 91%
    03:00 -7°C° 0 mm 2 m/s 746 mmHg 90%
    04:00 -7°C° 0 mm 2 m/s 746 mmHg 89%
    05:00 -6°C° 0 mm 2 m/s 746 mmHg 88%
    06:00 -6°C° 0 mm 2 m/s 746 mmHg 87%
    07:00 -5°C° 0 mm 2 m/s 746 mmHg 86%
    08:00 -4°C° 0 mm 3 m/s 746 mmHg 85%
    09:00 -2°C° 0 mm 3 m/s 746 mmHg 84%
    10:00 -2°C° 0 mm 4 m/s 745 mmHg 89%
    11:00 -2°C° 0 mm 4 m/s 745 mmHg 94%
    12:00 -1°C° 0 mm 5 m/s 745 mmHg 99%
    13:00 -1°C° 0.1 mm 5 m/s 744 mmHg 99%
    14:00 0°C° 0.1 mm 5 m/s 743 mmHg 99%
    15:00 -1°C° 0.1 mm 6 m/s 743 mmHg 99%
    16:00 0°C° 0.2 mm 5 m/s 742 mmHg 99%
    17:00 0°C° 0.2 mm 5 m/s 742 mmHg 99%
    18:00 0°C° 0.2 mm 4 m/s 742 mmHg 99%
    19:00 0°C° 1.2 mm 5 m/s 742 mmHg 99%
    20:00 0°C° 1.2 mm 5 m/s 742 mmHg 99%
    21:00 +1°C° 1.2 mm 5 m/s 742 mmHg 99%
    22:00 +1°C° 1 mm 5 m/s 741 mmHg 99%
    23:00 0°C° 1 mm 5 m/s 741 mmHg 99%

    27 Martie, Miercuri

    Timp Temperatura Precipitaţii Vânt Presiune Umiditate
    00:00 0°C° 1 mm 5 m/s 741 mmHg 99%
    01:00 0°C° 0.8 mm 5 m/s 741 mmHg 99%
    02:00 0°C° 0.8 mm 5 m/s 741 mmHg 99%
    03:00 0°C° 0.8 mm 5 m/s 741 mmHg 99%
    04:00 0°C° 0.3 mm 4 m/s 741 mmHg 99%
    05:00 0°C° 0.3 mm 4 m/s 741 mmHg 99%
    06:00 -1°C° 0.3 mm 4 m/s 741 mmHg 99%
    07:00 -1°C° 0.1 mm 4 m/s 742 mmHg 99%
    08:00 -1°C° 0.1 mm 4 m/s 742 mmHg 99%
    09:00 -1°C° 0.1 mm 4 m/s 743 mmHg 99%
    10:00 0°C° 0 mm 3 m/s 743 mmHg 99%
    11:00 0°C° 0 mm 3 m/s 743 mmHg 99%
    12:00 +1°C° 0 mm 2 m/s 744 mmHg 99%
    13:00 +1°C° 0 mm 2 m/s 744 mmHg 99%
    14:00 -1°C° 0 mm 2 m/s 744 mmHg 99%
    15:00 -1°C° 0 mm 2 m/s 745 mmHg 99%
    16:00 -1°C° 0 mm 2 m/s 745 mmHg 98%
    17:00 -2°C° 0 mm 2 m/s 745 mmHg 97%
    18:00 0°C° 0 mm 1 m/s 746 mmHg 96%
    19:00 -1°C° 0 mm 1 m/s 746 mmHg 95%
    20:00 -2°C° 0 mm 1 m/s 746 mmHg 95%
    21:00 -3°C° 0 mm 1 m/s 746 mmHg 95%
    22:00 -3°C° 0 mm 1 m/s 746 mmHg 93%
    23:00 -5°C° 0 mm 2 m/s 746 mmHg 92%

    28 Martie, Joi

    Timp Temperatura Precipitaţii Vânt Presiune Umiditate
    00:00 -6°C° 0 mm 2 m/s 746 mmHg 91%
    01:00 -5°C° 0 mm 2 m/s 746 mmHg 91%
    02:00 -6°C° 0 mm 3 m/s 746 mmHg 91%
    03:00 -6°C° 0 mm 3 m/s 745 mmHg 91%
    04:00 -6°C° 0 mm 3 m/s 746 mmHg 89%
    05:00 -6°C° 0 mm 3 m/s 746 mmHg 88%
    06:00 -6°C° 0 mm 3 m/s 746 mmHg 86%
    07:00 -5°C° 0 mm 3 m/s 746 mmHg 86%
    08:00 -5°C° 0 mm 4 m/s 747 mmHg 86%
    09:00 -4°C° 0 mm 4 m/s 747 mmHg 86%
    10:00 -4°C° 0 mm 4 m/s 747 mmHg 86%
    11:00 -3°C° 0 mm 4 m/s 747 mmHg 87%
    12:00 -4°C° 0 mm 5 m/s 748 mmHg 87%
    13:00 -2°C° 0 mm 5 m/s 748 mmHg 88%
    14:00 -2°C° 0 mm 5 m/s 748 mmHg 90%
    15:00 -3°C° 0 mm 6 m/s 748 mmHg 91%
    16:00 -2°C° 0 mm 5 m/s 748 mmHg 91%
    17:00 -2°C° 0 mm 5 m/s 749 mmHg 91%
    18:00 -2°C° 0 mm 5 m/s 749 mmHg 91%
    19:00 -2°C° 0 mm 5 m/s 749 mmHg 91%
    20:00 -2°C° 0 mm 5 m/s 749 mmHg 91%
    21:00 -4°C° 0 mm 5 m/s 750 mmHg 91%
    22:00 -4°C° 0 mm 5 m/s 750 mmHg 92%
    23:00 -5°C° 0 mm 5 m/s 750 mmHg 92%

    29 Martie, Vineri

    Timp Temperatura Precipitaţii Vânt Presiune Umiditate
    00:00 -5°C° 0 mm 5 m/s 750 mmHg 92%
    01:00 -5°C° 0 mm 4 m/s 751 mmHg 93%
    02:00 -7°C° 0 mm 4 m/s 751 mmHg 93%
    03:00 -7°C° 0 mm 4 m/s 751 mmHg 94%
    04:00 -8°C° 0 mm 4 m/s 751 mmHg 94%
    05:00 -8°C° 0 mm 4 m/s 751 mmHg 94%
    06:00 -7°C° 0 mm 3 m/s 751 mmHg 94%
    07:00 -8°C° 0 mm 4 m/s 751 mmHg 92%
    08:00 -7°C° 0 mm 4 m/s 751 mmHg 90%
    09:00 -7°C° 0 mm 4 m/s 751 mmHg 88%
    10:00 -6°C° 0 mm 5 m/s 751 mmHg 86%
    11:00 -5°C° 0 mm 5 m/s 751 mmHg 85%
    12:00 -4°C° 0 mm 5 m/s 750 mmHg 84%
    13:00 -3°C° 0 mm 6 m/s 750 mmHg 83%
    14:00 -3°C° 0 mm 6 m/s 749 mmHg 83%
    15:00 -2°C° 0 mm 6 m/s 748 mmHg 82%
    16:00 -2°C° 0.2 mm 6 m/s 748 mmHg 84%
    17:00 -2°C° 0.2 mm 6 m/s 747 mmHg 86%
    18:00 -2°C° 0.2 mm 6 m/s 746 mmHg 88%
    19:00 -2°C° 0.9 mm 6 m/s 746 mmHg 89%
    20:00 -2°C° 0.9 mm 6 m/s 745 mmHg 91%
    21:00 -2°C° 0.9 mm 6 m/s 745 mmHg 92%
    22:00 -2°C° 0.2 mm 6 m/s 745 mmHg 92%
    23:00 -2°C° 0.2 mm 6 m/s 744 mmHg 93%
    Arată mai mult